CANAVERAL NM East of Cape Canaveral, FL (41009)

Conditions for Friday

Daily
Weekly
Monthly
Marine Data Graph
Ad Blocker Enabled

Marine & Boating Location Search

Enter a coastal zip code for marine weather.

General Information

Location: 28.522 North -80.188 West
Buoy Type: 3-meter discus buoy
Buoy Hull: 3D86
Payload: AMPS payload
Owned by: NDBC
Windspeed: Measured by obtained from anemometer
Sea Surface: Measured by Intake

Weather and Wave Data

Time Temp Humidity Wind Dominant Wave Wind Wave Wave Swell Pressure
  Air
(°F)
Water
(°F)
  Dir Speed
(kts)
Speed
(mph)
Period
(sec)
Height
(ft)
Range
(ft)
Period
(sec)
Height
(ft)
Range
(ft)
Period
(sec)
Height
(ft)
Range
(ft)
Atmo.
(in)
Tend.
(in)
20:20 73 72 66 SSE 13.6 15.7 - - - - - - 30.07 -
20:50 73 72 68 SSE 13.6 15.7 8 2.30 exactly 2.3 3 1.64 0.82 - 2.46 8 1.64 0.82 - 2.46 30.07 +0.02
21:20 73 72 67 SE 13.6 15.7 - - - - - - 30.07 -
21:50 73 72 68 SSE 13.6 15.7 8 2.30 exactly 2.3 3 1.64 0.82 - 2.46 8 1.64 0.82 - 2.46 30.07 +0.01
22:20 73 72 67 SSE 13.6 15.7 - - - - - - 30.08 -
22:50 73 72 70 SSE 13.6 15.7 8 2.30 exactly 2.3 3 1.64 0.82 - 2.46 8 1.64 0.82 - 2.46 30.08 +0.01
23:20 73 72 72 SSE 11.7 13.4 - - - - - - 30.09 -
23:50 73 71 74 SSE 11.7 13.4 8 2.62 exactly 2.6 3 1.64 0.82 - 2.46 8 1.64 0.82 - 2.46 30.09 +0.01
00:20 73 71 75 SSE 11.7 13.4 - - - - - - 30.08 -
00:50 72 71 79 SSE 11.7 13.4 8 2.62 exactly 2.6 3 1.64 0.82 - 2.46 8 1.64 0.82 - 2.46 30.08 -
01:20 73 71 75 SSE 11.7 13.4 - - - - - - 30.08 -
01:50 72 71 79 SSE 11.7 13.4 3 2.62 exactly 2.6 3 1.64 0.82 - 2.46 7 1.64 0.82 - 2.46 30.07 -0.01
02:20 72 71 79 SSE 11.7 13.4 - - - - - - 30.07 -
02:50 72 71 79 SSE 11.7 13.4 3 2.62 exactly 2.6 3 1.64 0.82 - 2.46 8 1.64 0.82 - 2.46 30.06 -0.03
03:20 72 71 77 SSE 11.7 13.4 - - - - - - 30.06 -
03:50 72 71 77 SSE 9.7 11.2 4 2.62 exactly 2.6 4 1.64 0.82 - 2.46 9 1.64 0.82 - 2.46 30.06 -0.01
04:20 72 71 77 SSE 9.7 11.2 - - - - - - 30.06 -
04:50 72 71 78 SSE 9.7 11.2 4 2.62 exactly 2.6 4 1.64 0.82 - 2.46 9 1.64 0.82 - 2.46 30.07 -
05:20 72 71 79 SSE 7.8 8.9 - - - - - - 30.08 -
05:50 72 71 79 South 7.8 8.9 4 2.62 exactly 2.6 4 1.64 0.82 - 2.46 4 1.64 0.82 - 2.46 30.09 +0.03
06:20 72 71 79 SSE 7.8 8.9 - - - - - - 30.09 -
06:50 72 70 79 SSE 7.8 8.9 9 2.62 exactly 2.6 4 1.64 0.82 - 2.46 9 1.64 0.82 - 2.46 30.10 +0.04
07:20 72 70 79 SSE 7.8 8.9 - - - - - - 30.11 -
07:50 72 70 79 SSE 7.8 8.9 8 2.62 exactly 2.6 4 1.64 0.82 - 2.46 8 1.64 0.82 - 2.46 30.12 +0.05
08:20 72 70 77 SSE 9.7 11.2 - - - - - - 30.13 -
08:50 72 70 76 SSE 9.7 11.2 9 2.62 exactly 2.6 5 1.64 0.82 - 2.46 9 1.64 0.82 - 2.46 30.13 +0.04
09:20 72 70 76 SSE 9.7 11.2 - - - - - - 30.14 -
09:50 72 70 76 SSE 7.8 8.9 8 2.62 exactly 2.6 4 1.64 0.82 - 2.46 8 1.64 0.82 - 2.46 30.14 +0.04
10:20 72 70 77 SSE 9.7 11.2 - - - - - - 30.14 -
10:50 72 70 79 SSE 9.7 11.2 4 2.62 exactly 2.6 4 1.64 0.82 - 2.46 9 1.64 0.82 - 2.46 30.14 +0.03
11:20 72 70 79 SSE 11.7 13.4 - - - - - - 30.13 -
11:50 72 71 81 SSE 11.7 13.4 4 2.95 exactly 3.0 4 1.64 0.82 - 2.46 8 1.64 0.82 - 2.46 30.12 -0.01
12:20 72 71 79 SSE 11.7 13.4 - - - - - - 30.12 -
12:50 73 71 78 SSE 9.7 11.2 5 2.95 exactly 3.0 5 1.64 0.82 - 2.46 8 1.64 0.82 - 2.46 30.11 -0.03
13:20 73 71 77 SSE 11.7 13.4 - - - - - - 30.09 -
13:50 73 71 76 SSE 13.6 15.7 5 2.95 exactly 3.0 5 1.64 0.82 - 2.46 8 1.64 0.82 - 2.46 30.08 -0.06
14:20 73 71 77 SSE 11.7 13.4 - - - - - - 30.08 -
14:50 73 71 78 SSE 11.7 13.4 5 3.28 exactly 3.3 5 3.28 2.46 - 4.10 9 1.64 0.82 - 2.46 30.08 -0.05
15:20 73 71 78 SE 11.7 13.4 - - - - - - 30.07 -
15:50 73 71 80 SE 15.6 17.9 5 3.28 exactly 3.3 5 3.28 2.46 - 4.10 9 1.64 0.82 - 2.46 30.06 -0.05
16:20 73 71 81 SSE 13.6 15.7 - - - - - - 30.06 -
16:50 72 71 84 SE 13.6 15.7 4 3.61 exactly 3.6 4 3.28 2.46 - 4.10 9 1.64 0.82 - 2.46 30.06 -0.01
17:20 73 71 78 SE 13.6 15.7 - - - - - - 30.06 -
17:50 72 71 83 SE 13.6 15.7 5 3.61 exactly 3.6 5 3.28 2.46 - 4.10 8 1.64 0.82 - 2.46 30.06 -0.01
18:20 72 71 85 SE 15.6 17.9 - - - - - - 30.06 -
18:50 72 71 88 SE 17.5 20.1 5 3.94 exactly 3.9 5 3.28 2.46 - 4.10 8 1.64 0.82 - 2.46 30.06 -
19:20 73 71 83 SE 17.5 20.1 - - - - - - 30.08 -
19:50 73 71 84 SE 15.6 17.9 5 4.27 exactly 4.3 5 3.28 2.46 - 4.10 8 1.64 0.82 - 2.46 30.08 +0.02
20:20 73 71 84 SE 15.6 17.9 - - - - - - 30.09 -
20:50 73 71 84 SSE 15.6 17.9 6 4.27 exactly 4.3 6 3.28 2.46 - 4.10 8 1.64 0.82 - 2.46 30.09 +0.02
21:20 73 70 84 SSE 17.5 20.1 - - - - - - 30.08 -
21:50 73 70 84 SSE 15.6 17.9 6 4.92 exactly 4.9 6 4.92 4.10 - 5.74 8 1.64 0.82 - 2.46 30.09 +0.02
22:20 73 70 84 SSE 17.5 20.1 - - - - - - 30.08 -
22:50 73 70 84 SSE 15.6 17.9 6 5.25 exactly 5.2 6 4.92 4.10 - 5.74 9 1.64 0.82 - 2.46 30.08 -
23:20 73 70 84 SSE 15.6 17.9 - - - - - - 30.07 -
23:50 73 70 84 SSE 15.6 17.9 5 5.25 exactly 5.2 5 4.92 4.10 - 5.74 8 1.64 0.82 - 2.46 30.06 -0.02
00:20 73 70 84 SSE 17.5 20.1 - - - - - - 30.05 -
00:50 73 70 84 SSE 17.5 20.1 5 5.25 exactly 5.2 5 4.92 4.10 - 5.74 14 1.64 0.82 - 2.46 30.04 -0.05
01:20 72 70 88 SSE 15.6 17.9 - - - - - - 30.04 -
01:50 72 70 88 South 15.6 17.9 5 4.59 exactly 4.6 5 4.92 4.10 - 5.74 9 1.64 0.82 - 2.46 30.03 -0.05
02:20 72 70 88 South 13.6 15.7 - - - - - - 30.02 -
02:50 72 70 88 South 11.7 13.4 6 4.59 exactly 4.6 5 3.28 2.46 - 4.10 6 3.28 2.46 - 4.10 30.01 -0.05
03:20 72 70 87 South 11.7 13.4 - - - - - - 30.01 -
03:50 72 70 87 South 11.7 13.4 7 4.59 exactly 4.6 6 3.28 2.46 - 4.10 7 3.28 2.46 - 4.10 30.00 -0.04

Detailed Wave Spectra

Time Water Depth Wave Height Spectral Peak Period Average Wave Period Sampling Interval Wave Record
20:00 135 ft 2.20 ft 7.7 sec 4.7 sec 0.6 sec 2400 sec
21:00 135 ft 2.36 ft 8.3 sec 4.6 sec 0.6 sec 2400 sec
22:00 135 ft 2.30 ft 8.3 sec 4.0 sec 0.6 sec 2400 sec
23:00 135 ft 2.36 ft 8.3 sec 3.9 sec 0.6 sec 2400 sec
00:00 135 ft 2.59 ft 8.3 sec 4.1 sec 0.6 sec 2400 sec
01:00 135 ft 2.62 ft 7.7 sec 4.1 sec 0.6 sec 2400 sec
02:00 135 ft 2.53 ft 3.3 sec 3.9 sec 0.6 sec 2400 sec
03:00 135 ft 2.66 ft 3.4 sec 3.9 sec 0.6 sec 2400 sec
04:00 135 ft 2.56 ft 3.6 sec 4.1 sec 0.6 sec 2400 sec
05:00 135 ft 2.69 ft 3.8 sec 4.2 sec 0.6 sec 2400 sec
06:00 135 ft 2.79 ft 4.0 sec 4.2 sec 0.6 sec 2400 sec
07:00 135 ft 2.49 ft 9.1 sec 4.3 sec 0.6 sec 2400 sec
08:00 135 ft 2.53 ft 8.3 sec 4.3 sec 0.6 sec 2400 sec
09:00 135 ft 2.53 ft 9.1 sec 4.5 sec 0.6 sec 2400 sec
10:00 135 ft 2.62 ft 8.3 sec 4.3 sec 0.6 sec 2400 sec
11:00 135 ft 2.69 ft 4.0 sec 4.1 sec 0.6 sec 2400 sec
12:00 135 ft 2.82 ft 4.0 sec 4.2 sec 0.6 sec 2400 sec
13:00 135 ft 2.89 ft 4.5 sec 4.1 sec 0.6 sec 2400 sec
14:00 135 ft 2.82 ft 4.5 sec 4.1 sec 0.6 sec 2400 sec
15:00 135 ft 3.12 ft 4.5 sec 4.1 sec 0.6 sec 2400 sec
16:00 135 ft 3.41 ft 4.5 sec 4.1 sec 0.6 sec 2400 sec
17:00 135 ft 3.48 ft 4.0 sec 4.2 sec 0.6 sec 2400 sec
18:00 135 ft 3.74 ft 5.0 sec 4.2 sec 0.6 sec 2400 sec
19:00 135 ft 3.94 ft 5.3 sec 4.4 sec 0.6 sec 2400 sec
20:00 135 ft 4.27 ft 5.0 sec 4.5 sec 0.6 sec 2400 sec
21:00 135 ft 4.30 ft 5.6 sec 4.4 sec 0.6 sec 2400 sec
22:00 135 ft 4.89 ft 5.6 sec 4.7 sec 0.6 sec 2400 sec
23:00 135 ft 5.09 ft 5.6 sec 4.7 sec 0.6 sec 2400 sec
00:00 135 ft 5.22 ft 5.3 sec 4.8 sec 0.6 sec 2400 sec
01:00 135 ft 5.12 ft 5.3 sec 4.8 sec 0.6 sec 2400 sec
02:00 135 ft 4.76 ft 5.0 sec 4.7 sec 0.6 sec 2400 sec
03:00 135 ft 4.66 ft 6.3 sec 4.7 sec 0.6 sec 2400 sec